Regional Weather Roundup
Issued by NWS Charleston, WV

Home | Current Version | Previous Version | Text Only | Print | Product List | Glossary Off
Versions: 1 2 3 4 5 6 7 8 9 10 11 12 13 14 15 16 17 18 19 20 21 22 23 24 25 26 27 28 29 30 31 32 33 34 35 36 37 38 39 40 41 42 43 44 45 46 47 48 49 50

000
ASUS41 KRLX 270610
RWRRLX
West Virginia Regional Weather Roundup
National Weather Service Charleston WV
200 AM EDT WED JUL 27 2016

Note: "fair" indicates few or no clouds below 12,000 feet with no
significant weather and/or obstructions to visibility.

WVZ003-270700-
Northern Panhandle of West Virginia

CITY           SKY/WX    TMP DP  RH WIND       PRES   REMARKS
WHEELING       MOCLDY    74  60  61 NE5       30.04R
$$

WVZ009-270700-
Northwest West Virginia

CITY           SKY/WX    TMP DP  RH WIND       PRES   REMARKS
PARKERSBURG    FOG       73  72  96 S3        30.05S VSB 1/4
$$

WVZ006-270700-
Western West Virginia

CITY           SKY/WX    TMP DP  RH WIND       PRES   REMARKS
HUNTINGTON     FOG       71  70  96 S3        30.00F VSB 1/4
$$

WVZ015-270700-
West Central West Virginia

CITY           SKY/WX    TMP DP  RH WIND       PRES   REMARKS
CHARLESTON     FOG       72  71  97 CALM      30.02S VSB 1/8
$$

WVZ022-031-270700-
North Central West Virginia

CITY           SKY/WX    TMP DP  RH WIND       PRES   REMARKS
CLARKSBURG     CLOUDY    73  71  93 CALM      30.04S FOG
MORGANTOWN     MOCLDY    75  70  84 SW5       30.04S
$$

WVZ025-035-042-045-270700-
Southern West Virginia

CITY           SKY/WX    TMP DP  RH WIND       PRES   REMARKS
BECKLEY          N/A     68  66  93 CALM      30.11F
LOGAN          FOG       72  72 100 CALM      30.04F VSB<1/4
BLUEFIELD        N/A     71  68  90 SW3       30.14F
LEWISBURG      FOG       67  67  98 CALM      30.11F VSB 1/2
$$

WVZ047-270700-
Northern Mountains of West Virginia

CITY           SKY/WX    TMP DP  RH WIND       PRES   REMARKS
ELKINS         FOG       70  68  93 CALM      30.09S VSB 1
$$

WVZ052-270700-
Eastern Panhandle of West Virginia

CITY           SKY/WX    TMP DP  RH WIND       PRES   REMARKS
MARTINSBURG      N/A     77  70  79 CALM      29.96F
PETERSBURG       N/A     74  73  96 CALM      30.01S
$$



USA.gov is the U.S. government's official web portal to all federal, state and local government web resources and services.